CW1988 Weather Reports


Display with metric or nautical units.
time (UTC)temp
F
wind
direction
speed
MPH
gust
MPH
rain 1hr
in
rain 24hr
in
rain mn
in
humidity
%
barometer
mb
20260503052248 45 181 0.0 0.0 0.00 0.00 0.00 60 1014.6
20260503051742 45 181 0.0 0.0 0.00 0.00 0.00 59 1014.5
20260503051240 46 181 0.0 0.0 0.00 0.00 0.00 59 1014.6
20260503050736 46 181 0.0 0.0 0.00 0.00 0.00 59 1014.6
20260503050232 46 181 0.0 0.0 0.00 0.00 0.00 59 1014.6
20260503045730 46 181 0.0 0.0 0.00 0.00 0.00 59 1014.7
20260503045228 46 181 0.0 0.0 0.00 0.00 0.00 59 1014.5
20260503044724 46 181 0.0 0.0 0.00 0.00 0.00 60 1014.7
20260503044221 46 181 0.0 0.0 0.00 0.00 0.00 59 1014.7
20260503043718 46 181 0.0 0.0 0.00 0.00 0.00 59 1014.6
20260503043216 46 181 0.0 0.0 0.00 0.00 0.00 59 1014.8
20260503042711 46 181 0.0 0.0 0.00 0.00 0.00 60 1014.6
20260503042208 46 181 0.0 0.0 0.00 0.00 0.00 60 1014.8
20260503041704 46 181 0.0 0.0 0.00 0.00 0.00 60 1014.7
20260503041202 46 181 0.0 0.0 0.00 0.00 0.00 60 1014.9
20260503040659 46 181 0.0 0.0 0.00 0.00 0.00 60 1014.9
20260503040157 46 181 0.0 0.0 0.00 0.00 0.00 60 1015.0
20260503035653 46 181 0.0 0.0 0.00 0.00 0.00 60 1015.1
20260503035151 46 181 0.0 0.0 0.00 0.00 0.00 59 1015.0
20260503034648 46 181 0.0 0.0 0.00 0.00 0.00 60 1014.9
20260503034145 46 181 0.0 0.0 0.00 0.00 0.00 60 1015.2
20260503033642 45 181 0.0 0.0 0.00 0.00 0.00 61 1015.3
20260503033140 45 181 0.0 0.0 0.00 0.00 0.00 62 1015.0
20260503032638 45 181 0.0 0.0 0.00 0.00 0.00 63 1015.2
20260503032136 45 181 0.0 0.0 0.00 0.00 0.00 63 1015.3
20260503031628 45 181 0.0 0.0 0.00 0.00 0.00 64 1015.3
20260503031126 45 181 0.0 0.0 0.00 0.00 0.00 65 1015.2
20260503030621 45 181 0.0 0.0 0.00 0.00 0.00 65 1015.4
20260503030118 45 181 0.0 0.0 0.00 0.00 0.00 64 1015.3
20260503025614 45 181 0.0 0.0 0.00 0.00 0.00 65 1015.6
20260503025112 45 181 0.0 0.0 0.00 0.00 0.00 65 1015.4
20260503024608 45 181 0.0 0.0 0.00 0.00 0.00 64 1015.5
20260503024100 45 181 0.0 0.0 0.00 0.00 0.00 65 1015.7
20260503023557 45 181 0.0 0.0 0.00 0.00 0.00 65 1015.6
20260503023054 45 181 0.0 0.0 0.00 0.00 0.00 65 1015.4
20260503022550 46 181 0.0 0.0 0.00 0.00 0.00 65 1015.5
20260503022045 46 181 0.0 0.0 0.00 0.00 0.00 63 1015.6
20260503021542 46 181 0.0 0.0 0.00 0.00 0.00 63 1015.6
20260503021039 46 181 0.0 0.0 0.00 0.00 0.00 63 1015.5
20260503020536 46 181 0.0 0.0 0.00 0.00 0.00 62 1015.5
20260503020033 46 181 0.0 0.0 0.00 0.00 0.00 62 1015.3
20260503015530 47 181 0.0 0.0 0.00 0.00 0.00 61 1015.5
20260503015027 47 181 0.0 0.0 0.00 0.00 0.00 61 1015.5
20260503014523 47 181 0.0 0.0 0.00 0.00 0.00 61 1015.5
20260503014021 47 181 0.0 0.0 0.00 0.00 0.00 60 1015.4
20260503013518 47 181 0.0 0.0 0.00 0.00 0.00 59 1015.2
20260503013015 48 181 0.0 0.0 0.00 0.00 0.00 59 1015.3
20260503012513 48 181 0.0 0.0 0.00 0.00 0.00 58 1015.2
20260503012009 48 181 0.0 0.0 0.00 0.00 0.00 58 1015.1
20260503011506 48 181 0.0 0.0 0.00 0.00 0.00 57 1015.0
20260503011003 49 181 0.0 0.0 0.00 0.00 0.00 57 1015.1
20260503010459 49 181 0.0 0.0 0.00 0.00 0.00 56 1015.4
20260503005956 50 181 0.0 0.0 0.00 0.00 0.00 55 1015.3
20260503005453 50 181 0.0 0.0 0.00 0.00 0.00 54 1015.3
20260503004950 51 181 0.0 0.0 0.00 0.00 0.00 55 1015.2
20260503004446 51 181 0.0 0.0 0.00 0.00 0.00 52 1015.2
20260503003945 52 181 0.0 0.0 0.00 0.00 0.00 50 1015.3
20260503003441 53 181 0.0 0.0 0.00 0.00 0.00 48 1015.1
20260503002938 54 181 0.0 0.0 0.00 0.00 0.00 47 1015.1
20260503002435 54 181 0.0 0.0 0.00 0.00 0.00 45 1015.3
20260503001931 55 181 0.0 0.0 0.00 0.00 0.00 41 1015.3
20260503001428 55 181 0.0 0.0 0.00 0.00 0.00 41 1015.2
20260503000926 55 181 0.0 0.0 0.00 0.00 0.00 42 1015.2
20260503000422 55 181 0.0 0.0 0.00 0.00 0.00 40 1015.3
20260502235920 56 181 0.0 0.0 0.00 0.00 0.00 41 1015.4
20260502235417 56 181 0.0 0.0 0.00 0.00 0.00 41 1015.2
20260502234915 56 181 0.0 0.0 0.00 0.00 0.00 42 1015.4
20260502234411 56 181 0.0 1.0 0.00 0.00 0.00 43 1015.5
20260502233908 56 181 0.0 0.0 0.00 0.00 0.00 43 1015.7
20260502233403 56 181 0.0 0.0 0.00 0.00 0.00 39 1015.6
20260502232901 56 181 0.0 0.0 0.00 0.00 0.00 42 1015.7
20260502232357 56 181 0.0 0.0 0.00 0.00 0.00 41 1015.6
20260502231854 56 181 0.0 1.0 0.00 0.00 0.00 41 1015.5
20260502231352 56 181 0.0 0.0 0.00 0.00 0.00 39 1015.8
20260502230850 56 181 0.0 0.0 0.00 0.00 0.00 40 1015.7
20260502230347 56 181 0.0 0.0 0.00 0.00 0.00 41 1015.7
20260502225843 56 181 0.0 0.0 0.00 0.00 0.00 42 1016.0
20260502225335 56 181 0.0 0.0 0.00 0.00 0.00 42 1015.8
20260502224832 56 181 0.0 0.0 0.00 0.00 0.00 42 1016.1
20260502224327 56 181 1.0 1.0 0.00 0.00 0.00 42 1016.2
20260502223825 56 181 0.0 0.0 0.00 0.00 0.00 42 1016.2
20260502223323 57 181 0.0 0.0 0.00 0.00 0.00 40 1016.2
20260502222815 57 181 0.0 0.0 0.00 0.00 0.00 40 1016.1
20260502222312 56 181 0.0 0.0 0.00 0.00 0.00 43 1016.1
20260502221808 56 181 1.0 2.0 0.00 0.00 0.00 38 1016.3
20260502221304 56 181 0.0 1.0 0.00 0.00 0.00 40 1016.3
20260502220801 57 181 0.0 0.0 0.00 0.00 0.00 38 1016.4
20260502220256 58 181 0.0 0.0 0.00 0.00 0.00 40 1016.4
20260502215753 58 181 0.0 0.0 0.00 0.00 0.00 39 1016.4
20260502215250 57 181 0.0 0.0 0.00 0.00 0.00 41 1016.5
20260502214747 57 181 0.0 0.0 0.00 0.00 0.00 40 1016.4
20260502214244 57 181 0.0 0.0 0.00 0.00 0.00 39 1016.4
20260502213742 57 181 0.0 0.0 0.00 0.00 0.00 36 1016.4
20260502213239 58 181 0.0 1.0 0.00 0.00 0.00 35 1016.6
20260502212738 58 181 0.0 0.0 0.00 0.00 0.00 37 1016.6
20260502212235 58 181 0.0 0.0 0.00 0.00 0.00 40 1016.6
20260502211731 58 181 0.0 0.0 0.00 0.00 0.00 37 1016.6
20260502211228 59 181 0.0 0.0 0.00 0.00 0.00 41 1016.6
20260502210725 59 181 0.0 0.0 0.00 0.00 0.00 40 1016.6
20260502210222 59 181 0.0 0.0 0.00 0.00 0.00 39 1017.0
20260502205720 58 181 0.0 0.0 0.00 0.00 0.00 39 1016.9
20260502205216 58 181 0.0 0.0 0.00 0.00 0.00 39 1016.9
20260502204713 57 181 0.0 0.0 0.00 0.00 0.00 38 1017.0
20260502204211 58 181 0.0 0.0 0.00 0.00 0.00 42 1017.0
20260502203708 58 181 0.0 0.0 0.00 0.00 0.00 37 1017.1
20260502203201 58 181 0.0 0.0 0.00 0.00 0.00 42 1017.3
20260502202659 57 181 0.0 0.0 0.00 0.00 0.00 41 1017.3
20260502202158 57 181 1.0 1.0 0.00 0.00 0.00 41 1017.2
20260502201655 57 181 0.0 0.0 0.00 0.00 0.00 37 1017.3
20260502201147 57 181 0.0 1.0 0.00 0.00 0.00 36 1017.2
20260502200642 57 181 0.0 0.0 0.00 0.00 0.00 37 1017.7
20260502200139 56 181 0.0 1.0 0.00 0.00 0.00 39 1017.6
20260502195637 55 181 0.0 0.0 0.00 0.00 0.00 38 1017.7
20260502195133 56 181 1.0 1.0 0.00 0.00 0.00 38 1017.7
20260502194630 55 181 0.0 1.0 0.00 0.00 0.00 36 1017.8
20260502194126 55 181 0.0 0.0 0.00 0.00 0.00 41 1017.9
20260502193623 55 181 0.0 0.0 0.00 0.00 0.00 38 1018.1
20260502193120 55 181 0.0 0.0 0.00 0.00 0.00 40 1018.1
20260502192615 55 181 0.0 0.0 0.00 0.00 0.00 38 1018.2
20260502192113 54 181 0.0 0.0 0.00 0.00 0.00 41 1018.3
20260502191609 54 181 0.0 0.0 0.00 0.00 0.00 38 1018.3
20260502191102 54 181 0.0 0.0 0.00 0.00 0.00 37 1018.3
20260502190559 54 181 0.0 0.0 0.00 0.00 0.00 40 1018.3
20260502190055 55 181 1.0 2.0 0.00 0.00 0.00 38 1018.5
20260502185545 55 181 0.0 0.0 0.00 0.00 0.00 42 1018.7
20260502185042 56 181 0.0 1.0 0.00 0.00 0.00 39 1018.5
20260502184538 56 181 0.0 0.0 0.00 0.00 0.00 39 1018.8
20260502184034 55 181 0.0 1.0 0.00 0.00 0.00 42 1018.8
20260502183531 56 181 0.0 0.0 0.00 0.00 0.00 37 1018.7
20260502183027 56 181 0.0 1.0 0.00 0.00 0.00 38 1018.7
20260502182521 56 181 0.0 0.0 0.00 0.00 0.00 36 1018.8
20260502182018 56 181 0.0 1.0 0.00 0.00 0.00 37 1019.0
20260502181516 55 181 1.0 1.0 0.00 0.00 0.00 41 1019.0
20260502181014 55 181 0.0 1.0 0.00 0.00 0.00 43 1019.0
20260502180510 55 181 0.0 1.0 0.00 0.00 0.00 41 1019.0
20260502170429 53 181 0.0 0.0 0.00 0.00 0.00 38 1019.7
20260502163913 53 181 0.0 0.0 0.00 0.00 0.00 43 1019.8
20260502163409 53 181 0.0 0.0 0.00 0.00 0.00 40 1019.8
20260502162907 53 181 0.0 0.0 0.00 0.00 0.00 43 1020.1
20260502162403 53 181 0.0 0.0 0.00 0.00 0.00 47 1020.0
20260502161900 52 181 1.0 2.0 0.00 0.00 0.00 44 1020.0
20260502161356 52 181 1.0 1.0 0.00 0.00 0.00 44 1020.2
20260502160854 52 181 0.0 0.0 0.00 0.00 0.00 41 1020.0
20260502160353 52 181 1.0 1.0 0.00 0.00 0.00 48 1020.3
20260502152328 56 180 0.0 0.0 0.00 0.00 0.00 39 1020.4
20260502151825 57 180 0.0 1.0 0.00 0.00 0.00 38 1020.6
20260502151322 56 180 0.0 0.0 0.00 0.00 0.00 39 1020.4
20260502150820 56 180 0.0 0.0 0.00 0.00 0.00 41 1020.5
20260502150316 56 180 0.0 0.0 0.00 0.00 0.00 44 1020.3
20260502130704 45 180 0.0 0.0 0.00 0.00 0.00 72 1020.9
20260502130202 42 181 0.0 0.0 0.00 0.00 0.00 76 1020.8
20260502123647 39 181 0.0 0.0 0.00 0.00 0.00 84 1020.9
20260502123144 39 181 0.0 0.0 0.00 0.00 0.00 84 1020.9
20260502122641 39 181 0.0 0.0 0.00 0.00 0.00 83 1020.9
20260502122137 39 181 0.0 0.0 0.00 0.00 0.00 82 1020.7
20260502121636 39 181 0.0 0.0 0.00 0.00 0.00 81 1021.0
20260502121133 37 181 0.0 0.0 0.00 0.00 0.00 83 1020.7
20260502120629 36 181 0.0 0.0 0.00 0.00 0.00 84 1021.0
20260502120126 36 181 0.0 0.0 0.00 0.00 0.00 84 1020.9
20260502115624 35 181 0.0 0.0 0.00 0.00 0.00 86 1020.8
20260502115119 33 181 0.0 0.0 0.00 0.00 0.00 90 1020.8
20260502114616 32 181 0.0 0.0 0.00 0.00 0.00 92 1020.9
20260502114113 31 181 0.0 0.0 0.00 0.00 0.00 92 1020.8
20260502113610 31 181 0.0 0.0 0.00 0.00 0.00 93 1020.8
20260502113109 30 181 0.0 0.0 0.00 0.00 0.00 93 1020.7
20260502112606 30 182 0.0 0.0 0.00 0.00 0.00 92 1020.7
20260502112104 30 182 0.0 0.0 0.00 0.00 0.00 92 1020.6
20260502111601 30 182 0.0 0.0 0.00 0.00 0.00 92 1020.6
20260502111058 29 182 0.0 0.0 0.00 0.00 0.00 92 1020.6
20260502110556 29 182 0.0 0.0 0.00 0.00 0.00 92 1020.4
20260502110053 29 182 0.0 0.0 0.00 0.00 0.00 92 1020.7
20260502105550 29 182 0.0 0.0 0.00 0.00 0.00 92 1020.5
20260502105048 29 182 0.0 0.0 0.00 0.00 0.00 92 1020.5
20260502104545 29 182 0.0 0.0 0.00 0.00 0.00 91 1020.7
20260502104042 29 182 0.0 0.0 0.00 0.00 0.00 91 1020.5
20260502103540 29 182 0.0 0.0 0.00 0.00 0.00 91 1020.7
20260502103038 30 182 0.0 0.0 0.00 0.00 0.00 91 1020.5
20260502102534 29 182 0.0 0.0 0.00 0.00 0.00 92 1020.6
20260502102031 29 182 0.0 0.0 0.00 0.00 0.00 91 1020.5
20260502101529 29 182 0.0 0.0 0.00 0.00 0.00 91 1020.5
20260502101027 29 182 0.0 0.0 0.00 0.00 0.00 91 1020.5
20260502100525 29 182 0.0 0.0 0.00 0.00 0.00 91 1020.6
20260502091500 29 181 0.0 0.0 0.00 0.00 0.00 90 1020.3
20260502090957 29 181 0.0 0.0 0.00 0.00 0.00 90 1020.4
20260502090454 29 181 0.0 0.0 0.00 0.00 0.00 89 1020.6
20260502071348 30 181 0.0 0.0 0.00 0.00 0.00 89 1020.4
20260502070847 30 181 0.0 0.0 0.00 0.00 0.00 88 1020.3
20260502070344 30 181 0.0 0.0 0.00 0.00 0.00 87 1020.4
20260502065843 30 181 0.0 0.0 0.00 0.00 0.00 88 1020.4
20260502065340 30 181 0.0 0.0 0.00 0.00 0.00 87 1020.4
20260502064838 31 181 0.0 0.0 0.00 0.00 0.00 87 1020.3
20260502064336 31 181 0.0 0.0 0.00 0.00 0.00 87 1020.5
20260502063833 30 181 0.0 0.0 0.00 0.00 0.00 87 1020.6
20260502063331 30 181 0.0 0.0 0.00 0.00 0.00 87 1020.5
20260502062828 30 181 0.0 0.0 0.00 0.00 0.00 87 1020.8
20260502062325 30 181 0.0 0.0 0.00 0.00 0.00 87 1020.8
20260502061824 30 181 0.0 0.0 0.00 0.00 0.00 88 1020.8
20260502061321 30 181 0.0 0.0 0.00 0.00 0.00 87 1020.6
20260502060817 30 181 0.0 0.0 0.00 0.00 0.00 87 1020.8
20260502060312 30 181 0.0 0.0 0.00 0.00 0.00 87 1020.9
20260502055810 30 181 0.0 0.0 0.00 0.00 0.00 86 1020.7
20260502055308 31 181 0.0 0.0 0.00 0.00 0.00 86 1020.7
20260502054807 31 181 0.0 0.0 0.00 0.00 0.00 86 1020.7
20260502054304 31 181 0.0 0.0 0.00 0.00 0.00 86 1020.8
20260502053801 31 181 0.0 0.0 0.00 0.00 0.00 86 1020.7
20260502053259 31 181 0.0 0.0 0.00 0.00 0.00 85 1020.7
20260502052756 31 181 0.0 0.0 0.00 0.00 0.00 85 1020.7